Location: Jackson Park
(37.2862°N, 79.9123°W)
Time: 13:33:19
(UTC+00:00)

Vanguard 2 Rocket - Pass Details

Date: 17 May 2026
Orbit: 553 x 3286 km, 32.9° (Epoch: 6 June)

Event Time Altitude Azimuth Distance (km) Brightness Sun altitude
Rises 15:22:16 0° 238° (WSW) 4,662 10.4 59.4°
Reaches altitude 10° 15:24:53 10° 234° (SW) 3,974 10.2 59.9°
Maximum altitude 15:36:03 61° 157° (SSE) 2,678 11.2 61.8°
Drops below altitude 10° 15:54:04 10° 84° (E) 6,114 11.5 64.7°
Sets 15:59:14 0° 82° (E) 7,245 11.7 65.5°
